Date,TemperatureHighF,TemperatureAvgF,TemperatureLowF,DewpointHighF,DewpointAvgF,DewpointLowF,HumidityHigh,HumidityAvg,HumidityLow,PressureMaxIn,PressureMinIn,WindSpeedMaxMPH,WindSpeedAvgMPH,GustSpeedMaxMPH,PrecipitationSumIn
2013-1-1,73,66,58,62,58,53,92,77,64,30.27,30.09,22,6,22,0.00
2013-1-2,68,66,64,66,64,62,97,94,82,30.12,30.05,17,6,17,0.00
2013-1-3,74,64,59,68,62,58,97,95,78,30.22,30.08,23,6,24,0.16
2013-1-4,60,58,55,59,56,54,96,95,92,30.33,30.20,17,6,17,0.09
2013-1-5,70,61,56,61,57,52,95,87,72,30.35,30.24,21,6,21,0.00
2013-1-6,72,65,62,68,62,60,96,93,84,30.25,30.14,24,6,24,0.01
2013-1-7,66,62,59,63,59,55,96,90,77,30.26,30.16,27,9,27,0.01
2013-1-8,80,69,62,69,65,60,94,86,69,30.27,30.17,19,8,22,0.00
2013-1-9,84,75,69,72,68,66,95,82,62,30.33,30.21,23,6,23,0.00
2013-1-10,82,74,66,69,67,64,96,79,58,30.33,30.15,28,8,28,0.00
2013-1-11,81,72,66,68,65,63,92,80,62,30.30,30.18,25,6,25,0.00
2013-1-12,78,71,66,69,67,64,93,87,74,30.23,30.13,21,5,21,0.00
2013-1-13,78,72,67,69,66,64,90,82,71,30.22,30.10,21,6,21,0.00
2013-1-14,78,72,65,66,64,60,91,77,57,30.23,30.15,18,4,18,0.00
2013-1-15,77,70,64,69,65,60,91,83,72,30.19,30.10,17,4,17,0.00
2013-1-16,76,70,65,69,66,64,95,87,74,30.15,30.06,21,5,21,0.00
2013-1-17,70,64,54,69,60,47,95,85,65,30.22,30.03,40,16,40,0.23
2013-1-18,62,54,43,54,47,37,81,76,69,30.38,30.21,34,10,35,0.00
2013-1-19,73,64,54,65,56,48,96,75,64,30.33,30.15,25,8,25,0.00
2013-1-20,73,64,60,63,59,56,91,83,71,30.23,30.10,18,5,18,0.00
2013-1-21,68,64,62,61,58,52,88,80,70,30.17,30.09,22,7,22,0.00
2013-1-22,65,60,55,53,44,35,73,57,38,30.34,30.13,24,7,24,0.00
2013-1-23,63,56,48,49,40,34,75,56,37,30.43,30.33,24,7,24,0.00
2013-1-24,64,59,51,57,52,40,89,77,54,30.41,30.31,13,5,13,0.00
2013-1-25,68,62,55,61,58,53,94,86,71,30.38,30.25,11,4,11,0.01
2013-1-26,68,64,59,61,59,55,91,84,75,30.35,30.25,15,4,16,0.00
2013-1-27,77,66,58,61,58,52,95,79,47,30.36,30.26,17,5,17,0.00
2013-1-28,77,69,63,66,63,58,92,81,65,30.36,30.26,24,5,24,0.00
2013-1-29,78,70,64,68,65,61,94,86,69,30.28,30.13,23,7,23,0.00
2013-1-30,74,70,68,68,66,64,94,88,80,30.13,29.95,32,12,32,0.00
2013-1-31,68,58,54,66,47,36,94,68,48,30.30,29.97,36,14,36,0.15